Location: Unspecified
(0.0000°N, 0.0000°E)
Time: 07:25:18
(UTC+00:00)

Vanguard 2 - All Passes

Search period start: 20 October 2021 00:00
Search period end: 30 October 2021 00:00
Orbit: 553 x 2936 km, 32.9° (Epoch: 19 October)

Date Brightness Start Highest point End Pass type
(mag) Time Alt. Az. Time Alt. Az. Time Alt. Az.
20 Oct - 00:06:00 10° WSW 00:22:08 57° NW 00:32:44 10° NE visible
20 Oct - 02:26:34 10° WNW 02:32:40 15° NW 02:37:34 10° N night (unlit)
20 Oct - 09:08:02 10° NNE 09:08:42 10° NE 09:09:21 10° NE daylight
20 Oct - 11:12:06 10° WNW 11:16:40 76° SW 11:23:44 10° SE daylight
20 Oct - 13:22:10 10° WSW 13:27:00 20° SSW 13:33:36 10° SSE daylight
20 Oct - 15:38:00 10° SSW 15:40:48 11° S 15:43:52 10° SSE daylight
20 Oct - 17:49:28 10° SSW 17:57:40 16° SSE 18:06:50 10° SE visible
20 Oct - 19:58:51 10° SSW 20:13:59 35° SSE 20:28:26 10° E visible
20 Oct - 22:09:57 10° SW 22:28:06 77° SE 22:41:41 10° ENE visible
21 Oct - 00:24:58 10° WSW 00:39:53 43° NW 00:50:00 10° NNE visible
21 Oct - 09:23:20 10° NNW 09:26:23 20° NE 09:29:54 10° E daylight
21 Oct - 11:30:04 10° WNW 11:34:35 44° SSW 11:41:23 10° SE daylight
21 Oct - 13:41:54 10° SW 13:45:39 14° SSW 13:50:16 10° SSE daylight
21 Oct - 15:59:48 10° S 16:00:13 10° S 16:00:39 10° S daylight
21 Oct - 18:07:04 10° SSW 18:17:01 19° SSE 18:28:05 10° ESE visible
21 Oct - 20:16:19 10° SW 20:32:32 44° SSE 20:47:39 10° E visible
21 Oct - 22:27:57 10° SW 22:46:07 86° NW 22:59:32 10° NE visible
22 Oct - 00:44:28 10° W 00:57:44 32° NW 01:07:05 10° NNE night (unlit)
22 Oct - 09:40:14 10° NNW 09:43:59 38° NE 09:48:40 10° ESE daylight
22 Oct - 11:48:27 10° W 11:52:42 27° SSW 11:58:41 10° SSE daylight
22 Oct - 14:03:50 10° SSW 14:04:30 10° S 14:05:11 10° S daylight
22 Oct - 16:17:56 10° S 16:19:43 10° S 16:21:34 10° SSE daylight
22 Oct - 18:24:28 10° SSW 18:36:05 24° SSE 18:48:58 10° ESE visible
22 Oct - 20:33:50 10° SW 20:50:54 55° SE 21:06:26 10° ENE visible
22 Oct - 22:46:13 10° WSW 23:04:03 69° NW 23:17:11 10° NE visible
23 Oct - 01:04:36 10° W 01:15:42 24° NW 01:23:58 10° NNE night (unlit)
23 Oct - 09:57:38 10° NW 10:01:37 79° NE 10:06:51 10° ESE daylight
23 Oct - 12:07:26 10° WSW 12:10:59 17° SSW 12:15:33 10° SSE daylight
23 Oct - 16:34:50 10° S 16:39:09 12° SSE 16:43:54 10° SE daylight
23 Oct - 18:41:47 10° SSW 18:54:52 30° SSE 19:09:17 10° E visible
23 Oct - 20:51:27 10° SW 21:09:06 68° SE 21:24:51 10° ENE visible
23 Oct - 23:04:50 10° WSW 23:21:57 54° NW 23:34:38 10° NE visible
24 Oct - 01:25:34 10° WNW 01:33:55 17° NNW 01:40:33 10° N night (unlit)
24 Oct - 08:09:21 10° N 08:11:15 13° NNE 08:13:08 10° ENE daylight
24 Oct - 10:15:27 10° WNW 10:19:23 52° SSW 10:24:35 10° SE daylight
24 Oct - 12:27:42 10° SSW 12:29:26 11° SSW 12:31:23 10° S daylight
24 Oct - 16:51:47 10° S 16:58:25 15° SSE 17:06:03 10° SE daylight
24 Oct - 18:59:06 10° SSW 19:13:24 38° SSE 19:29:01 10° E visible
24 Oct - 21:09:15 10° SW 21:27:11 84° SE 21:42:57 10° ENE visible
24 Oct - 23:23:53 10° WSW 23:39:54 42° NW 23:51:57 10° NNE visible
25 Oct - 01:47:46 10° NW 01:52:24 12° NNW 01:56:26 10° N night (unlit)
25 Oct - 08:25:42 10° NNW 08:29:03 25° NE 08:32:28 10° E daylight
25 Oct - 10:33:42 10° W 10:37:19 28° SSW 10:41:53 10° SSE daylight
25 Oct - 17:08:47 10° SSW 17:17:26 18° SSE 17:27:43 10° ESE daylight
25 Oct - 19:16:28 10° SW 19:31:42 48° SE 19:48:14 10° ENE visible
25 Oct - 21:27:16 10° WSW 21:45:13 80° NW 22:00:48 10° NE visible
25 Oct - 23:43:28 10° W 23:57:58 32° NW 00:09:07 10° NNE visible
26 Oct - 08:42:52 10° NW 08:46:47 51° NE 08:50:51 10° ESE daylight
26 Oct - 10:52:38 10° WSW 10:55:23 16° SSW 10:58:39 10° SSE daylight
26 Oct - 17:25:49 10° SSW 17:36:10 24° SSE 17:48:45 10° ESE daylight
26 Oct - 19:33:56 10° SW 19:49:53 60° SE 20:06:58 10° ENE visible
26 Oct - 21:45:34 10° WSW 22:03:13 65° NW 22:18:26 10° NE visible
27 Oct - 00:03:41 10° W 00:16:13 25° NNW 00:26:08 10° NNE visible
27 Oct - 06:54:44 10° N 06:55:53 11° NNE 06:56:58 10° NE daylight
27 Oct - 09:00:31 10° WNW 09:04:29 73° SW 09:08:44 10° SE daylight
27 Oct - 17:42:55 10° SSW 17:54:38 31° SSE 18:09:05 10° E visible
27 Oct - 19:51:33 10° SW 20:07:57 74° SE 20:25:22 10° ENE visible
27 Oct - 22:04:14 10° WSW 22:21:17 51° NW 22:35:54 10° NE visible
28 Oct - 00:24:36 10° WNW 00:34:44 19° NNW 00:43:02 10° N night (unlit)
28 Oct - 07:10:30 10° NNW 07:13:58 20° NNE 07:16:58 10° ENE daylight
28 Oct - 09:18:37 10° W 09:22:15 34° SSW 09:26:09 10° SSE daylight
28 Oct - 15:54:55 10° S 15:59:28 13° SSE 16:04:40 10° SE daylight
28 Oct - 18:00:06 10° SSW 18:12:53 40° SE 18:28:48 10° E visible
28 Oct - 20:09:21 10° SW 20:25:59 90° S 20:43:26 10° NE visible
28 Oct - 22:23:20 10° W 22:39:27 41° NW 22:53:15 10° NNE visible
29 Oct - 00:46:19 10° NW 00:53:33 14° NNW 00:59:43 10° N night (unlit)
29 Oct - 07:27:29 10° NW 07:31:53 37° NNE 07:35:34 10° E daylight
29 Oct - 09:37:21 10° WSW 09:40:06 18° SSW 09:43:01 10° SSE daylight
29 Oct - 16:11:06 10° S 16:18:09 17° SSE 16:26:51 10° ESE daylight
29 Oct - 18:17:24 10° SW 18:30:57 51° SE 18:47:58 10° ENE visible
29 Oct - 20:27:23 10° WSW 20:44:02 74° NW 21:01:16 10° NE visible
29 Oct - 22:42:57 10° W 22:57:47 32° NNW 23:10:31 10° NNE visible
